Location: Erlenbrunn
(49.1717°N, 7.6142°E)
Time: 04:00:45
(UTC+00:00)

Meteor 2-2 Rocket - Pass Details

Date: 25 November 2020
Orbit: 852 x 928 km, 81.3° (Epoch: 24 January)

Event Time Altitude Azimuth Distance (km) Brightness Sun altitude
Rises 16:27:07 0° 188° (S) 3,550 7.9 -8.0°
Reaches altitude 10° 16:29:35 10° 188° (S) 2,605 7.2 -8.4°
Maximum altitude 16:35:33 86° 101° (E) 916 4.4 -9.3°
Drops below altitude 10° 16:41:27 10° 13° (NNE) 2,575 6.4 -10.2°
Sets 16:43:53 0° 13° (NNE) 3,508 7.1 -10.5°
